Weather in Borovichi

Russia / Kurgan Oblast     55°03′47″N   62°34′34″E
temp.,
°C
wind,
m/s
gust,
m/s
humid.,
%
clouds,
%
prec.,
mm/h
press.,
hPa
HPBL,
m
28 january, thu
thu2823:00−6sw468791 0.0 103089
02:00−6sw5108689 0.0 1029164
05:00−6sw5128975 0.0 1029215
08:00−6sw6148597 0.0 1029283
11:00−6sw7138698 0.0 1028311
14:00−5sw71484100 0.0 1027374
17:00−6sw7148594 0.0 1027343
20:00−7sw71485100 0.0 1027311
29 january, fri
fri2923:00−8sw61485100 0.0 1026279
02:00−9sw51484100 0.0 1026275
05:00−10ssw51186100 0.0 1026243
08:00−11ssw4988100 0.0 1026175
11:00−10ssw51086100 0.0 1026246
14:00−8ssw61085100 0.0 1025272
17:00−10s51089100 0.0 1025235
20:00−11s51091100 0.0 1024183
30 january, sat
sat3023:00−12s4992100 0.0 1024182
02:00−11s51190100 0.0 1023240
05:00−11s51092100 0.0 1021251
08:00−10s51193100 0.0 1019296
11:00−8s51092100 0.0 1019351
14:00−6s4893100 0.1 1018366
17:00−6s4894100 0.2 1017405
20:00−6s3895100 0.1 1017263
31 january, sun
sun3123:00−9ssw349698 0.1 101764
02:00−11sw349577 0.0 101740
05:00−12wsw239452 0.0 101821
08:00−11sw2291100 0.0 101821
11:00−8sw229071 0.0 101933
14:00−5ssw129073 0.0 101993
17:00−7s338771 0.0 102021
20:00−9s3388100 0.0 102123
1 february, mon
mon123:00−9s349092 0.0 102043
02:00−10s479031 0.0 1020107
05:00−10s4109061 0.0 1019173
08:00−10s61386100 0.0 1017271
11:00−7ssw81491100 0.0 1015455
14:00−4ssw71393100 0.4 1014531
17:00+1sw71388100 0.4 1015746
20:00−3sw6138542 0.0 1017286